• In Romania
  • List of Countries
  • For 7 days
  • Water Temperature
  • Satellite Maps
  • Weather Map
  • Weather Widgets
  • user-avatar
    Login

    Hourly Weather Perth

    Today, 20 September, Wednesday

    Time Temperature Precipitation Wind Pressure Humidity
    00:00 +18°C° 0.2 mm 4 mps 759 mmHg 92%
    01:00 +18°C° 0.2 mm 4 mps 759 mmHg 92%
    02:00 +17°C° 0 mm 5 mps 758 mmHg 92%
    03:00 +17°C° 0.2 mm 5 mps 758 mmHg 91%
    04:00 +17°C° 0.2 mm 5 mps 759 mmHg 91%
    05:00 +16°C° 0.2 mm 5 mps 759 mmHg 90%
    06:00 +17°C° 0.1 mm 5 mps 759 mmHg 87%
    07:00 +17°C° 0.1 mm 5 mps 759 mmHg 84%
    08:00 +17°C° 0.1 mm 5 mps 759 mmHg 81%
    09:00 +19°C° 0 mm 5 mps 759 mmHg 74%
    10:00 +20°C° 0 mm 6 mps 760 mmHg 67%
    11:00 +21°C° 0 mm 6 mps 760 mmHg 59%
    12:00 +21°C° 0 mm 5 mps 759 mmHg 58%
    13:00 +22°C° 0 mm 5 mps 759 mmHg 57%
    14:00 +22°C° 0 mm 5 mps 758 mmHg 56%
    15:00 +21°C° 0.1 mm 5 mps 758 mmHg 62%
    16:00 +20°C° 0.1 mm 5 mps 758 mmHg 67%
    17:00 +19°C° 0.1 mm 4 mps 758 mmHg 73%
    18:00 +19°C° 0.3 mm 5 mps 758 mmHg 78%
    19:00 +17°C° 0.3 mm 5 mps 758 mmHg 84%
    20:00 +17°C° 0.3 mm 5 mps 758 mmHg 90%
    21:00 +17°C° 0.8 mm 6 mps 758 mmHg 90%
    22:00 +19°C° 0.8 mm 6 mps 757 mmHg 91%
    23:00 +19°C° 0.8 mm 6 mps 757 mmHg 91%

    Tomorrow, 21 September, Thursday

    Time Temperature Precipitation Wind Pressure Humidity
    00:00 +18°C° 0.7 mm 7 mps 757 mmHg 92%
    01:00 +18°C° 0.7 mm 7 mps 756 mmHg 92%
    02:00 +18°C° 0.7 mm 7 mps 756 mmHg 93%
    03:00 +18°C° 0.2 mm 7 mps 755 mmHg 92%
    04:00 +18°C° 0.2 mm 7 mps 755 mmHg 92%
    05:00 +18°C° 0.2 mm 7 mps 754 mmHg 91%
    06:00 +18°C° 0.1 mm 7 mps 754 mmHg 89%
    07:00 +18°C° 0.1 mm 8 mps 754 mmHg 88%
    08:00 +18°C° 0.1 mm 9 mps 754 mmHg 87%
    09:00 +18°C° 0.5 mm 9 mps 753 mmHg 85%
    10:00 +19°C° 0.5 mm 10 mps 753 mmHg 84%
    11:00 +19°C° 0.5 mm 11 mps 753 mmHg 82%
    12:00 +19°C° 1.2 mm 11 mps 752 mmHg 83%
    13:00 +19°C° 1.2 mm 11 mps 752 mmHg 85%
    14:00 +18°C° 1.2 mm 10 mps 752 mmHg 86%
    15:00 +18°C° 0.3 mm 9 mps 752 mmHg 85%
    16:00 +18°C° 0.3 mm 8 mps 752 mmHg 83%
    17:00 +17°C° 0.3 mm 7 mps 753 mmHg 81%
    18:00 +17°C° 0.1 mm 7 mps 753 mmHg 80%
    19:00 +16°C° 0.1 mm 7 mps 753 mmHg 79%
    20:00 +16°C° 0.1 mm 6 mps 753 mmHg 79%
    21:00 +16°C° 0.1 mm 6 mps 753 mmHg 79%
    22:00 +15°C° 0.1 mm 6 mps 753 mmHg 79%
    23:00 +15°C° 0.1 mm 6 mps 753 mmHg 79%

    Day after tomorrow, 22 September, Friday

    Time Temperature Precipitation Wind Pressure Humidity
    00:00 +15°C° 0.2 mm 7 mps 753 mmHg 80%
    01:00 +15°C° 0.2 mm 7 mps 752 mmHg 80%
    02:00 +15°C° 0.2 mm 7 mps 752 mmHg 81%
    03:00 +15°C° 0.4 mm 8 mps 751 mmHg 81%
    04:00 +15°C° 0.4 mm 9 mps 751 mmHg 81%
    05:00 +15°C° 0.4 mm 9 mps 750 mmHg 81%
    06:00 +14°C° 1.1 mm 10 mps 750 mmHg 80%
    07:00 +14°C° 1.1 mm 10 mps 751 mmHg 80%
    08:00 +14°C° 1.1 mm 11 mps 751 mmHg 80%
    09:00 +16°C° 0.3 mm 11 mps 751 mmHg 73%
    10:00 +17°C° 0.3 mm 12 mps 752 mmHg 67%
    11:00 +17°C° 0.3 mm 12 mps 752 mmHg 60%
    12:00 +17°C° 0.5 mm 12 mps 752 mmHg 61%
    13:00 +17°C° 0.5 mm 12 mps 752 mmHg 62%
    14:00 +17°C° 0.5 mm 12 mps 752 mmHg 63%
    15:00 +17°C° 0.5 mm 11 mps 752 mmHg 66%
    16:00 +16°C° 0.5 mm 11 mps 753 mmHg 69%
    17:00 +16°C° 0.5 mm 10 mps 753 mmHg 72%
    18:00 +15°C° 0.3 mm 9 mps 754 mmHg 75%
    19:00 +13°C° 0.3 mm 8 mps 755 mmHg 78%
    20:00 +14°C° 0.3 mm 7 mps 756 mmHg 81%
    21:00 +14°C° 0.2 mm 7 mps 756 mmHg 81%
    22:00 +13°C° 0.2 mm 6 mps 757 mmHg 81%
    23:00 +13°C° 0.2 mm 6 mps 757 mmHg 81%

    23 September, Saturday

    Time Temperature Precipitation Wind Pressure Humidity
    00:00 +13°C° 0.2 mm 6 mps 757 mmHg 81%
    01:00 +11°C° 0.2 mm 6 mps 757 mmHg 81%
    02:00 +11°C° 0.2 mm 6 mps 758 mmHg 81%
    03:00 +11°C° 0.2 mm 6 mps 758 mmHg 81%
    04:00 +11°C° 0.2 mm 6 mps 758 mmHg 81%
    05:00 +10°C° 0.2 mm 5 mps 758 mmHg 81%
    06:00 +12°C° 0.1 mm 5 mps 759 mmHg 77%
    07:00 +12°C° 0.1 mm 5 mps 759 mmHg 74%
    08:00 +13°C° 0.1 mm 5 mps 760 mmHg 71%
    09:00 +14°C° 0.1 mm 5 mps 760 mmHg 66%
    10:00 +15°C° 0.1 mm 5 mps 759 mmHg 61%
    11:00 +16°C° 0.1 mm 5 mps 759 mmHg 56%
    12:00 +16°C° 0.1 mm 5 mps 759 mmHg 56%
    13:00 +16°C° 0.1 mm 5 mps 759 mmHg 56%
    14:00 +16°C° 0.1 mm 6 mps 758 mmHg 56%
    15:00 +16°C° 0 mm 5 mps 758 mmHg 58%
    16:00 +15°C° 0 mm 5 mps 758 mmHg 59%
    17:00 +15°C° 0 mm 5 mps 758 mmHg 61%
    18:00 +13°C° 0 mm 4 mps 759 mmHg 65%
    19:00 +12°C° 0 mm 4 mps 759 mmHg 69%
    20:00 +11°C° 0 mm 3 mps 759 mmHg 74%
    21:00 +11°C° 0.1 mm 3 mps 759 mmHg 74%
    22:00 +11°C° 0.1 mm 3 mps 758 mmHg 75%
    23:00 +11°C° 0.1 mm 3 mps 758 mmHg 75%

    24 September, Sunday

    Time Temperature Precipitation Wind Pressure Humidity
    00:00 +11°C° 0.1 mm 3 mps 757 mmHg 77%
    01:00 +11°C° 0.1 mm 3 mps 756 mmHg 78%
    02:00 +11°C° 0.1 mm 4 mps 756 mmHg 79%
    03:00 +10°C° 0.1 mm 4 mps 755 mmHg 81%
    04:00 +10°C° 0.1 mm 4 mps 754 mmHg 84%
    05:00 +10°C° 0.1 mm 4 mps 754 mmHg 86%
    06:00 +10°C° 0.5 mm 5 mps 754 mmHg 86%
    07:00 +10°C° 0.5 mm 5 mps 753 mmHg 85%
    08:00 +11°C° 0.5 mm 6 mps 753 mmHg 85%
    09:00 +11°C° 1.2 mm 7 mps 752 mmHg 83%
    10:00 +12°C° 1.2 mm 7 mps 752 mmHg 82%
    11:00 +12°C° 1.2 mm 8 mps 751 mmHg 81%
    12:00 +13°C° 0.7 mm 8 mps 751 mmHg 77%
    13:00 +13°C° 0.7 mm 8 mps 750 mmHg 73%
    14:00 +14°C° 0.7 mm 7 mps 750 mmHg 70%
    15:00 +12°C° 0.7 mm 7 mps 750 mmHg 74%
    16:00 +11°C° 0.7 mm 6 mps 750 mmHg 77%
    17:00 +10°C° 0.7 mm 6 mps 750 mmHg 81%
    18:00 +10°C° 0.5 mm 5 mps 750 mmHg 82%
    19:00 +9°C° 0.5 mm 5 mps 750 mmHg 82%
    20:00 +10°C° 0.5 mm 4 mps 751 mmHg 82%
    21:00 +8°C° 0.5 mm 4 mps 750 mmHg 83%
    22:00 +8°C° 0.5 mm 4 mps 750 mmHg 83%
    23:00 +9°C° 0.5 mm 3 mps 750 mmHg 84%

    25 September, Monday

    Time Temperature Precipitation Wind Pressure Humidity
    00:00 +9°C° 0.9 mm 3 mps 749 mmHg 85%
    01:00 +9°C° 0.9 mm 3 mps 749 mmHg 86%
    02:00 +9°C° 0.9 mm 3 mps 748 mmHg 87%
    03:00 +9°C° 1 mm 3 mps 748 mmHg 88%
    04:00 +9°C° 1 mm 3 mps 748 mmHg 89%
    05:00 +9°C° 1 mm 2 mps 748 mmHg 90%
    06:00 +9°C° 0.2 mm 2 mps 749 mmHg 89%
    07:00 +10°C° 0.2 mm 2 mps 749 mmHg 88%
    08:00 +10°C° 0.2 mm 2 mps 749 mmHg 87%
    09:00 +12°C° 0.1 mm 3 mps 749 mmHg 77%
    10:00 +13°C° 0.1 mm 3 mps 750 mmHg 67%
    11:00 +15°C° 0.1 mm 4 mps 750 mmHg 57%
    12:00 +15°C° 0.2 mm 5 mps 750 mmHg 58%
    13:00 +15°C° 0.2 mm 7 mps 750 mmHg 58%
    14:00 +15°C° 0.2 mm 8 mps 750 mmHg 59%
    15:00 +15°C° 0.2 mm 7 mps 751 mmHg 61%
    16:00 +14°C° 0.2 mm 7 mps 751 mmHg 63%
    17:00 +14°C° 0.2 mm 6 mps 752 mmHg 66%
    18:00 +11°C° 0.1 mm 6 mps 753 mmHg 69%
    19:00 +10°C° 0.1 mm 5 mps 754 mmHg 73%
    20:00 +9°C° 0.1 mm 5 mps 755 mmHg 77%
    21:00 +8°C° 0 mm 5 mps 755 mmHg 78%
    22:00 +8°C° 0 mm 4 mps 756 mmHg 79%
    23:00 +7°C° 0 mm 4 mps 756 mmHg 80%
    Show more